DateTimeUTC,F1_A11,F1_S11,BsB_S11,BsG_S11,BsR_S11,BbsB_S11,BbsG_S11,BbsR_S11,BaB_A11,BaG_A11,BaR_A11,Tu_S11,T_S11,Uu_S11,U_S11,P_S11,T1_A11
2021-07-13T11:00:00Z,00000200,20000000,,,,,,,0000.07,0000.45,-000.34,18.4,24.8,09.9,06.7,0668.7,31.0
2021-07-13T11:01:00Z,00000200,20000000,,,,,,,-000.20,0000.08,0000.37,18.4,24.8,09.9,06.7,0668.7,31.0
2021-07-13T11:02:00Z,00000200,20000000,,,,,,,0000.10,-000.32,-000.05,18.4,24.8,09.9,06.7,0668.7,31.0
2021-07-13T11:03:00Z,00000200,60000000,,,,,,,0000.21,0000.22,0000.13,18.4,24.8,09.9,06.7,0668.7,31.0
2021-07-13T11:04:00Z,00000200,40000000,0001.21,0001.03,0001.07,0000.13,0000.08,-000.03,0000.54,-000.05,0000.12,18.5,24.7,09.9,06.8,0669.6,31.0
2021-07-13T11:05:00Z,00000200,00000000,0002.08,0000.75,0000.36,0000.15,-000.12,0000.41,0000.10,0000.33,-000.01,18.5,24.6,09.9,06.8,0669.7,31.0
2021-07-13T11:06:00Z,00000200,00000000,0001.74,0000.86,0000.12,0000.75,0000.07,-000.09,-000.12,0000.12,-000.02,18.6,24.7,09.9,06.8,0669.7,31.0
2021-07-13T11:07:00Z,00000200,00000000,0000.95,0001.12,0000.69,0000.04,0000.06,0000.19,0000.15,0000.07,0000.23,18.6,24.7,10.0,06.9,0669.7,31.0
2021-07-13T11:08:00Z,00000200,00000000,0001.67,0000.73,0000.74,0000.79,0000.10,-000.02,0000.37,0000.25,0000.02,18.6,24.7,10.0,06.9,0669.7,31.0
2021-07-13T11:09:00Z,00000200,00000000,0001.09,0001.20,0000.75,-000.17,0000.01,-000.11,-000.22,-000.18,0000.27,18.6,24.6,10.0,06.9,0669.7,31.0
2021-07-13T11:10:00Z,00000200,00000000,0002.42,0000.90,0000.54,-000.02,0000.12,0000.04,0000.10,0000.13,-000.26,18.6,24.7,10.0,06.9,0669.7,31.0
2021-07-13T11:11:00Z,00000200,00000000,0001.76,0001.02,0000.35,0000.42,0000.06,0000.04,-000.06,0000.13,0000.32,18.6,24.7,10.0,06.9,0669.7,31.0
2021-07-13T11:12:00Z,00000200,00000000,0002.08,0000.66,0000.78,-000.54,0000.21,-000.02,0000.70,0000.16,0000.15,18.6,24.7,10.0,06.9,0669.7,31.0
2021-07-13T11:13:00Z,00000200,00000000,0001.14,0000.83,0000.71,-000.31,0000.39,-000.01,-000.22,0000.38,-000.12,18.6,24.7,10.1,07.0,0669.7,31.0
2021-07-13T11:14:00Z,00000200,00000000,0001.45,0000.75,0000.46,0000.27,0000.19,-000.11,0000.07,0000.02,0000.55,18.6,24.7,10.1,06.9,0669.7,31.0
2021-07-13T11:15:00Z,00000200,00000000,0001.23,0000.66,0000.63,-000.06,-000.07,0000.18,0000.06,-000.18,-000.07,18.6,24.7,10.1,07.0,0669.7,31.0
2021-07-13T11:16:00Z,00000200,00000000,0001.33,0001.04,0000.57,0000.07,0000.04,0000.22,0000.38,0000.18,-000.03,18.6,24.7,10.2,07.0,0669.7,31.0
2021-07-13T11:17:00Z,00000200,00000000,0001.59,0001.07,0000.18,0000.07,0000.02,-000.30,0000.28,0000.22,0000.01,18.6,24.6,10.2,07.1,0669.7,31.0
2021-07-13T11:18:00Z,00000200,00000000,0001.06,0000.91,0000.66,-000.33,0000.53,0000.03,0000.05,0000.14,0000.37,18.6,24.7,10.2,07.1,0669.7,31.0
2021-07-13T11:19:00Z,00000200,00000000,0001.39,0001.01,0000.40,0000.08,0000.12,-000.15,0000.05,0000.05,0000.16,18.7,24.6,10.2,07.0,0669.7,31.0
2021-07-13T11:20:00Z,00000200,00000000,0001.78,0000.94,0000.26,0000.12,-000.01,-000.03,0000.53,0000.34,0000.27,18.6,24.7,10.4,07.2,0669.7,31.0
2021-07-13T11:21:00Z,00000200,00000000,0001.42,0000.90,0000.43,0000.36,0000.05,0000.16,-000.14,0000.06,0000.31,18.7,24.7,10.3,07.2,0669.6,31.0
2021-07-13T11:22:00Z,00000200,00000000,0001.64,0001.11,0000.77,-000.11,-000.01,-000.04,0000.13,0000.35,-000.39,18.7,24.7,10.4,07.2,0669.6,31.0
2021-07-13T11:23:00Z,00000200,00000000,0001.27,0000.89,0000.58,0000.98,0000.18,0000.21,0000.16,-000.17,0000.21,18.7,24.7,10.6,07.3,0669.6,31.0
2021-07-13T11:24:00Z,00000200,00000000,0001.68,0000.87,0000.14,0000.50,0000.09,-000.08,0000.36,0000.41,0000.42,18.7,24.7,10.6,07.3,0669.6,31.0
2021-07-13T11:25:00Z,00000200,00000000,0001.16,0000.91,0000.52,0000.15,0000.22,0000.14,-000.22,-000.17,-000.21,18.7,24.7,10.6,07.4,0669.6,31.0
2021-07-13T11:26:00Z,00000200,00000000,0001.27,0000.90,0000.71,-000.22,0000.27,0000.12,0000.22,0000.43,0000.16,18.7,24.7,10.7,07.4,0669.6,31.0
2021-07-13T11:27:00Z,00000200,00000000,0002.02,0000.84,0000.25,-000.05,0000.15,0000.13,0000.17,-000.03,-000.10,18.7,24.7,10.7,07.5,0669.6,31.0
2021-07-13T11:28:00Z,00000200,00000000,0001.51,0000.76,0000.45,0000.12,0000.31,0000.24,0000.13,-000.19,0000.34,18.8,24.7,10.6,07.4,0669.6,31.0
2021-07-13T11:29:00Z,00000200,00000000,0001.25,0000.91,0000.54,0000.33,0000.37,0000.11,0000.12,0000.22,-000.05,18.7,24.7,10.5,07.3,0669.6,31.0
2021-07-13T11:30:00Z,00000200,00000000,0001.38,0000.83,0000.05,0000.24,0000.08,-000.04,0000.04,0000.22,0000.08,18.8,24.7,10.6,07.4,0669.6,31.0
2021-07-13T11:31:00Z,00000200,00000000,0001.74,0000.84,0000.41,0000.20,0000.14,-000.02,0000.12,0000.06,0000.20,18.8,24.7,10.7,07.4,0669.6,31.0
2021-07-13T11:32:00Z,00000200,00000000,0001.47,0000.99,0000.73,0000.61,0000.25,0000.06,-000.04,0000.03,-000.28,18.8,24.7,10.6,07.4,0669.6,31.0
2021-07-13T11:33:00Z,00000200,00000000,0001.70,0000.82,0000.38,0000.29,0000.16,0000.18,-000.01,0000.00,0000.37,18.8,24.7,10.6,07.4,0669.6,31.0
2021-07-13T11:34:00Z,00000200,00000000,0001.18,0000.87,0000.37,-000.12,0000.12,0000.14,0000.50,0000.51,0000.16,18.8,24.7,10.7,07.4,0669.6,31.0
2021-07-13T11:35:00Z,00000200,00000000,0001.55,0001.06,0000.57,0000.02,0000.36,-000.02,0000.02,-000.18,-000.11,18.8,24.7,10.7,07.4,0669.6,31.0
2021-07-13T11:36:00Z,00000200,00000000,0000.79,0000.76,0000.67,0000.04,0000.06,0000.44,-000.13,0000.06,0000.38,18.8,24.7,10.6,07.4,0669.6,31.0
2021-07-13T11:37:00Z,00000200,00000000,0001.23,0000.67,0000.48,-000.12,0000.00,0000.08,0000.12,0000.17,-000.18,18.8,24.7,10.6,07.3,0669.6,31.0
2021-07-13T11:38:00Z,00000200,00000000,0001.68,0000.62,0000.60,-000.02,0000.04,-000.20,0000.24,0000.26,0000.25,18.8,24.7,10.7,07.4,0669.6,31.0
2021-07-13T11:39:00Z,00000200,00000000,0001.52,0001.04,0000.54,-000.01,0000.12,0000.06,-000.29,-000.19,-000.22,18.8,24.8,10.6,07.4,0669.6,31.0
2021-07-13T11:40:00Z,00000200,00000000,0001.74,0000.62,0000.53,0000.16,0000.12,0000.02,0000.44,0000.27,0000.32,18.9,24.8,10.7,07.4,0669.6,31.0
2021-07-13T11:41:00Z,00000200,00000000,0001.47,0000.47,0000.65,0000.42,-000.00,0000.43,0000.30,0000.04,0000.15,18.9,24.8,10.7,07.5,0669.5,31.0
2021-07-13T11:42:00Z,00000200,00000000,0001.14,0000.76,0000.26,0000.07,0000.24,-000.17,-000.11,0000.08,0000.18,18.9,24.8,10.7,07.4,0669.5,31.0
2021-07-13T11:43:00Z,00000200,00000000,0001.02,0000.67,0000.18,-000.11,-000.22,0000.09,0000.16,0000.01,-000.24,18.9,24.8,10.7,07.5,0669.5,31.0
2021-07-13T11:44:00Z,00000200,00000000,0001.17,0000.49,0000.47,0000.06,0000.28,0000.00,0000.30,0000.18,0000.37,18.9,24.8,10.8,07.5,0669.5,31.0
2021-07-13T11:45:00Z,00000200,00000000,0001.26,0000.54,0000.33,0000.41,0000.00,0000.12,0000.17,0000.24,-000.13,18.9,24.8,10.8,07.5,0669.5,31.0
2021-07-13T11:46:00Z,00000200,00000000,0000.55,0000.74,0000.52,-000.34,0000.20,0000.00,-000.15,-000.06,0000.41,18.9,24.8,10.7,07.5,0669.5,31.0
2021-07-13T11:47:00Z,00000200,00000000,0001.45,0000.79,0000.26,0000.26,-000.01,0000.35,0000.10,0000.39,-000.24,18.9,24.8,10.8,07.5,0669.5,31.0
2021-07-13T11:48:00Z,00000200,00000000,0001.46,0000.64,0000.39,-000.23,0000.23,0000.04,0000.56,-000.05,0000.58,18.9,24.8,10.9,07.6,0669.5,31.0
2021-07-13T11:49:00Z,00000200,00000000,0001.27,0000.70,0000.14,-000.18,0000.16,0000.16,-000.18,-000.03,-000.25,18.9,24.8,10.8,07.5,0669.5,31.0
2021-07-13T11:50:00Z,00000200,00000000,0000.54,0000.74,0000.64,-000.10,0000.09,0000.11,-000.16,0000.19,-000.06,18.9,24.8,10.8,07.5,0669.5,31.0
2021-07-13T11:51:00Z,00000200,00000000,0001.31,0000.92,0000.60,0000.02,0000.06,0000.05,0000.10,-000.37,0000.01,18.9,24.8,10.7,07.5,0669.4,31.0
2021-07-13T11:52:00Z,00000200,00000000,0001.78,0000.77,0000.57,0000.08,0000.51,0000.34,0000.16,0000.54,0000.09,19.0,24.8,10.7,07.5,0669.5,31.0
2021-07-13T11:53:00Z,00000200,00000000,0001.64,0000.87,0000.15,-000.08,-000.01,-000.05,0000.21,-000.34,0000.28,19.0,24.8,10.8,07.6,0669.5,31.0
2021-07-13T11:54:00Z,00000200,00000000,0001.57,0000.62,0000.45,-000.11,0000.11,-000.27,0000.11,0000.75,0000.11,19.0,24.8,10.8,07.5,0669.5,31.0
2021-07-13T11:55:00Z,00000200,00000000,0001.17,0000.83,0000.51,0000.26,0000.36,0000.18,-000.22,-000.21,-000.01,19.0,24.9,10.8,07.5,0669.5,31.0
2021-07-13T11:56:00Z,00000200,00000000,0001.65,0000.85,0000.27,0000.66,0000.41,0000.01,0000.31,-000.08,0000.09,19.0,24.8,10.7,07.5,0669.5,31.0
2021-07-13T11:57:00Z,00000200,40000000,,,,,,,0000.19,0000.03,-000.33,19.0,24.9,10.6,07.4,0669.5,31.0
2021-07-13T11:58:00Z,00000200,60000000,,,,,,,0000.02,0000.20,0000.18,18.8,25.0,10.8,07.4,0668.5,31.0
2021-07-13T11:59:00Z,00000200,20000000,,,,,,,-000.14,-000.35,0000.06,18.8,25.1,10.7,07.3,0668.5,31.0
